Regional Weather Roundup
Issued by NWS Upton, NY

Current Version | Previous Version | Graphics & Text | Print | Product List | Glossary Off
Versions: 1 2 3 4 5 6 7 8 9 10 11 12 13 14 15 16 17 18 19 20 21 22 23 24 25 26 27 28 29 30 31 32 33 34 35 36 37 38 39 40 41 42 43 44 45 46 47 48 49 50

000
ASUS41 KOKX 010405
RWROKX

REGIONAL WEATHER ROUNDUP
NATIONAL WEATHER SERVICE NEW YORK NY
1200 AM EDT MON SEP 01 2014

NOTE: "FAIR" INDICATES FEW OR NO CLOUDS BELOW 12,000 FEET WITH NO
SIGNIFICANT WEATHER AND/OR OBSTRUCTIONS TO VISIBILITY.

NYZ071-072-176-178-NJZ106-104-010500-
NEW YORK CITY METRO AREA


CITY           SKY/WX    TMP DP  RH WIND       PRES   REMARKS
CENTRAL PARK   CLOUDY    76  72  87 W6        30.03S
LAGUARDIA APRT CLOUDY    78  71  79 SW8       29.99F
KENNEDY INTL   CLOUDY    76  71  85 SW13      30.01S
NEWARK/LIBERTY CLOUDY    78  71  79 SW7       30.00S
BRNX BOT. GARD   N/A     77  72  83 W16       30.02S
TETERBORO      CLOUDY    77  73  87 SW6       29.99S
$$

NYZ177-179-078>081-010500-
LONG ISLAND NEW YORK

CITY           SKY/WX    TMP DP  RH WIND       PRES   REMARKS
FARMINGDALE    CLOUDY    75  73  93 SW8       30.01S
ISLIP          LGT RAIN  75  72  90 SW6       29.99S
SHIRLEY        CLOUDY    75  72  90 SW6       30.01F
WESTHAMPTON    CLOUDY    75  70  84 SW10      30.02F
MONTAUK POINT    N/A     74  71  91 SW10G18   30.01F
$$

NYZ052-065-067-010500-
HUDSON VALLEY

CITY           SKY/WX    TMP DP  RH WIND       PRES   REMARKS
WHITE PLAINS   MOCLDY    73  72  96 CALM      30.00F FOG
NEWBURGH       MOCLDY    70  70 100 VRB3      30.00F
MONTGOMERY     FOG       69  68  96 CALM      30.00S VSB 1
POUGHKEEPSIE   MOCLDY    72  69  90 CALM      29.98S
ALBANY         MOCLDY    73  70  90 CALM      29.96S
$$

NJZ001-105-106-008-010-013-015-019>022-104-010500-
NEW JERSEY

CITY           SKY/WX    TMP DP  RH WIND       PRES   REMARKS
NEWARK/LIBERTY CLOUDY    78  71  79 SW7       30.00S
TETERBORO      CLOUDY    77  73  87 SW6       29.99S
CALDWELL       CLOUDY    75  71  87 SW3       30.01S
MORRISTOWN     CLOUDY    75  72  88 CALM      30.00F
SOMERVILLE     CLOUDY    74  72  93 CALM      30.00S FOG
LINDEN         CLOUDY    81  74  79 W3        30.02F
SUSSEX         FOG       72  69  90 CALM      30.01S VSB 3/4
ANDOVER          N/A     71  70  96 CALM      30.03R
TRENTON        CLOUDY    74  71  91 SW8       30.01F
MILLVILLE      CLOUDY    73  72  96 CALM      30.03F
ATLANTIC CITY  CLOUDY    72  71  97 CALM      30.04F
WRIGHTSTOWN    CLOUDY    72  72 100 SW5       30.00F
TOMS RIVER     CLOUDY    72  70  94 S3        30.03F
BELMAR         CLOUDY    73  68  83 SW6       30.02F
$$

PAZ047>061-062-071-010500-
EASTERN PENNSYLVANIA

CITY           SKY/WX    TMP DP  RH WIND       PRES   REMARKS
PHILADELPHIA   LGT RAIN  74  71  91 S7        30.03S
ALLENTOWN      CLOUDY    73  70  90 CALM      30.01F
SCRANTON       MOCLDY    70  67  90 CALM      30.03S
$$

CTZ002-004>006-009-010-012-RIZ004-006-007-MAZ004-011-015-010500-
SOUTHERN NEW ENGLAND
 IN CT

CITY           SKY/WX    TMP DP  RH WIND       PRES   REMARKS
BRADLEY INTL   MOCLDY    73  70  90 S7        29.96F
HARTFORD       MOCLDY    72  70  93 S5        29.97F
DANBURY        MOCLDY    71  70  96 CALM      30.01F FOG
WTRBRY/OXFORD  MOCLDY    72  66  83 CALM      30.02F
BRIDGEPORT     MOCLDY    75  73  93 SW5       29.99F
MERIDEN        CLOUDY    73  71  93 SW3       29.99F
NEW HAVEN      CLOUDY    76  73  91 CALM      29.99S
CHESTER        CLOUDY    73  73 100 SW6       30.02R FOG
GROTON         CLOUDY    72  72 100 CALM      29.98F
WILLIMANTIC    CLOUDY    72  70  93 CALM      29.99S

 IN RI

CITY           SKY/WX    TMP DP  RH WIND       PRES   REMARKS
PROVIDENCE     CLOUDY    73  72  96 SW6       29.98S FOG
BLOCK ISLAND   CLOUDY    72  70  94 SW15      30.01F
WESTERLY       CLOUDY    73  71  93 MISG      30.00F

 IN MA

CITY           SKY/WX    TMP DP  RH WIND       PRES   REMARKS
BOSTON         CLOUDY    74  73  97 SW7       29.95S
WORCESTER      CLOUDY    70  69  97 W10       30.00R
WESTFIELD      MOCLDY    72  70  93 S5        29.97S
PROVINCETOWN   CLOUDY    72  68  88 SW13G20   29.96F
NANTUCKET      CLOUDY    70  69  97 SW12      30.03R FOG
$$

ANZ330-335-338-340-345-350-353-355-010500-
COASTAL MARINE OBSERVATIONS


STATION/POSITION TIME  SKY/WX   TEMP    WIND        PRES    VSBY  WAVE
                                AIR SEA DIR/SP/G                  HT/PER
                 (UTC)          (F)     (DEG/KT/KT) (MB)    (MI)  (FT/S)
NY HARB ENTRANCE NOT AVBL
4S FIRE IS       NOT AVBL
23SW MTP         0400                                 N/A           6/ 6
HUDSON CANYON    0400            75 73  220/ 16/ 17 1017.3          4/ 5
EXECUTION ROCKS  0400            76 74  250/  6/  6   N/A
WESTERN LI SOUND 0400            76     320/  4/  4   N/A           0
CENTRAL LI SOUND 0300            73 72  220/ 10/ 12   N/A           1/ 3
EASTERN LI SOUND 0300            72 69  240/ 10/ 12   N/A
ROBBINS REEF     0400            77     250/  9/ 11   N/A
$$


>>>>>>>>>>>>>>>>>>>>>>>>>>>> KEY <<<<<<<<<<<<<<<<<<<<<<<<<<<
>                                                          <
>     SKY/WX - SKY CONDITION/PRESENT WEATHER               <
>     TMP    - TEMPERATURE IN FAHRENHEIT                   <
>     DP     - DEWPOINT IN FAHRENHEIT                      <
>     RH     - RELATIVE HUMIDITY IN PERCENT                <
>     WIND   - DIRECTION AND SPEED IN MPH                  <
>     PRES   - MEAN SEA LEVEL PRESSURE IN INCHES OF HG     <
>     WCI    - WIND CHILL INDEX                            <
>     VSB    - VISIBILITY IN MILES                         <
>     HX     - HEAT INDEX                                  <
>     TC     - TEMPERATURE IN CELSIUS                      <
>     VRB    - VARIABLE WIND DIRECTION                     <
>                                                          <
>>>>>>>>>>>>>>>>>>>>>>>>>>>> KEY <<<<<<<<<<<<<<<<<<<<<<<<<<<




USA.gov is the U.S. government's official web portal to all federal, state and local government web resources and services.